SWA3968 KPVD-KDCA

Flight info

Callsign SWA3968
Flight time 1h 5m
Altitude 32000
Route JUMPR RIFLE Q167 ZIZZI KNUKK ATR LAFLN DEALE3
Aircraft B738/M-SDE2E3FGHIRWXY/LB1

Departure

Time 2026-04-23 02:09
Airport Rhode Island T. F. Green International Airport (KPVD)

Arrival

Time 2026-04-23 03:15
Airport Ronald Reagan Washington National Airport (KDCA)
Time Latitude Longitude Altitude Speed Heading
2026-04-23 01:49 41.72732 -71.43460 53 ft 0 kts 163°
2026-04-23 02:01 41.72735 -71.43461 59 ft 3 kts 163°
2026-04-23 02:01 41.72760 -71.43470 54 ft 4 kts 167°
2026-04-23 02:01 41.72786 -71.43479 54 ft 4 kts 167°
2026-04-23 02:02 41.72809 -71.43480 55 ft 4 kts 221°
2026-04-23 02:02 41.72828 -71.43455 58 ft 4 kts 225°
2026-04-23 02:02 41.72846 -71.43430 58 ft 2 kts 225°
2026-04-23 02:02 41.72848 -71.43428 58 ft 1 kts 225°
2026-04-23 02:05 41.72845 -71.43430 58 ft 1 kts 213°
2026-04-23 02:05 41.72853 -71.43408 58 ft 6 kts 31°
2026-04-23 02:06 41.72872 -71.43392 58 ft 1 kts 36°
2026-04-23 02:06 41.72888 -71.43374 58 ft 5 kts 39°
2026-04-23 02:06 41.72917 -71.43329 58 ft 8 kts 71°
2026-04-23 02:06 41.72919 -71.43312 55 ft 0 kts 72°
2026-04-23 02:07 41.72939 -71.43303 56 ft 7 kts 15°
2026-04-23 02:07 41.73013 -71.43272 58 ft 15 kts 16°
2026-04-23 02:07 41.73107 -71.43221 60 ft 10 kts 38°
2026-04-23 02:07 41.73115 -71.43161 54 ft 5 kts 142°
2026-04-23 02:08 41.73084 -71.43136 58 ft 0 kts 139°
2026-04-23 02:08 41.72989 -71.43027 57 ft 52 kts 140°
2026-04-23 02:08 41.72508 -71.42517 51 ft 121 kts 142°
2026-04-23 02:09 41.71732 -71.41736 382 ft 145 kts 144°
2026-04-23 02:09 41.70915 -71.40941 1184 ft 145 kts 147°
2026-04-23 02:09 41.70105 -71.40124 1936 ft 147 kts 147°
2026-04-23 02:09 41.69339 -71.39186 2601 ft 151 kts 144°
2026-04-23 02:10 41.68520 -71.38160 2906 ft 172 kts 143°
2026-04-23 02:10 41.67594 -71.37035 3056 ft 188 kts 143°
2026-04-23 02:10 41.66574 -71.35821 3236 ft 208 kts 143°
2026-04-23 02:10 41.65437 -71.34499 3607 ft 224 kts 143°
2026-04-23 02:11 41.64204 -71.33147 4102 ft 236 kts 150°
2026-04-23 02:11 41.62580 -71.32490 4321 ft 258 kts 179°
2026-04-23 02:11 41.60728 -71.32313 4937 ft 273 kts 178°
2026-04-23 02:11 41.58816 -71.32094 5755 ft 278 kts 177°
2026-04-23 02:12 41.56870 -71.31832 6604 ft 283 kts 176°
2026-04-23 02:12 41.54884 -71.31533 7377 ft 289 kts 176°
2026-04-23 02:12 41.52877 -71.31207 8202 ft 293 kts 176°
2026-04-23 02:12 41.50896 -71.30868 9000 ft 298 kts 177°
2026-04-23 02:13 41.48818 -71.30501 9683 ft 304 kts 177°
2026-04-23 02:13 41.46716 -71.30123 9948 ft 305 kts 177°
2026-04-23 02:13 41.44596 -71.29738 9949 ft 308 kts 177°
2026-04-23 02:13 41.42458 -71.29348 10044 ft 317 kts 177°
2026-04-23 02:14 41.40221 -71.28943 10454 ft 333 kts 177°
2026-04-23 02:14 41.37868 -71.28517 10847 ft 349 kts 177°
2026-04-23 02:14 41.35415 -71.28069 11239 ft 361 kts 177°
2026-04-23 02:14 41.32907 -71.27606 11958 ft 365 kts 177°
2026-04-23 02:15 41.27845 -71.26670 13605 ft 372 kts 177°
2026-04-23 02:15 41.25256 -71.26197 14317 ft 378 kts 177°
2026-04-23 02:15 41.22635 -71.25723 15034 ft 382 kts 178°
2026-04-23 02:16 41.20043 -71.25761 15730 ft 374 kts 199°
2026-04-23 02:16 41.17695 -71.27059 16506 ft 360 kts 221°
2026-04-23 02:16 41.16381 -71.28433 17050 ft 354 kts 231°
2026-04-23 02:16 41.14863 -71.30939 17826 ft 345 kts 247°
2026-04-23 02:17 41.13450 -71.34712 18768 ft 346 kts 252°
2026-04-23 02:17 41.12445 -71.37623 19429 ft 348 kts 252°
2026-04-23 02:17 41.11442 -71.40552 20113 ft 351 kts 252°
2026-04-23 02:17 41.10424 -71.43511 20783 ft 354 kts 252°
2026-04-23 02:18 41.09729 -71.45517 21227 ft 355 kts 252°
2026-04-23 02:18 41.08685 -71.48506 21817 ft 360 kts 252°
2026-04-23 02:18 41.07623 -71.51526 22433 ft 363 kts 252°
2026-04-23 02:18 41.06546 -71.54572 23068 ft 366 kts 252°
2026-04-23 02:19 41.05458 -71.57639 23585 ft 372 kts 252°
2026-04-23 02:19 41.04361 -71.60726 23971 ft 378 kts 252°
2026-04-23 02:19 41.03221 -71.63926 24500 ft 380 kts 252°
2026-04-23 02:19 41.02105 -71.67046 25023 ft 381 kts 252°
2026-04-23 02:20 41.00950 -71.70274 25513 ft 384 kts 253°
2026-04-23 02:20 40.99818 -71.73439 25961 ft 387 kts 253°
2026-04-23 02:20 40.98645 -71.76713 26425 ft 390 kts 253°
2026-04-23 02:20 40.97490 -71.79933 26875 ft 393 kts 253°
2026-04-23 02:21 40.96313 -71.83212 27327 ft 396 kts 253°
2026-04-23 02:21 40.95127 -71.86510 27714 ft 399 kts 253°
2026-04-23 02:21 40.93926 -71.89851 28054 ft 404 kts 253°
2026-04-23 02:21 40.92713 -71.93219 28413 ft 408 kts 253°
2026-04-23 02:22 40.91486 -71.96620 28797 ft 411 kts 253°
2026-04-23 02:22 40.90250 -72.00041 29218 ft 413 kts 253°
2026-04-23 02:22 40.89006 -72.03476 29624 ft 416 kts 253°
2026-04-23 02:22 40.87754 -72.06932 29999 ft 418 kts 253°
2026-04-23 02:23 40.86491 -72.10417 30322 ft 421 kts 253°
2026-04-23 02:23 40.85220 -72.13919 30602 ft 424 kts 253°
2026-04-23 02:23 40.83939 -72.17443 30867 ft 427 kts 253°
2026-04-23 02:23 40.82649 -72.20990 31131 ft 430 kts 253°
2026-04-23 02:24 40.81347 -72.24560 31398 ft 433 kts 253°
2026-04-23 02:24 40.78723 -72.31757 31637 ft 443 kts 253°
2026-04-23 02:24 40.77364 -72.35466 32018 ft 443 kts 253°
2026-04-23 02:25 40.76017 -72.39138 32050 ft 446 kts 253°
2026-04-23 02:25 40.73318 -72.46475 32055 ft 440 kts 253°
2026-04-23 02:26 40.70657 -72.53708 32076 ft 439 kts 253°
2026-04-23 02:26 40.69097 -72.57226 32061 ft 451 kts 244°
2026-04-23 02:26 40.67098 -72.60486 32050 ft 463 kts 236°
2026-04-23 02:27 40.62225 -72.66217 32053 ft 473 kts 230°
2026-04-23 02:27 40.57234 -72.71812 32070 ft 475 kts 230°
2026-04-23 02:28 40.52217 -72.77498 32066 ft 477 kts 230°
2026-04-23 02:28 40.47202 -72.83229 32036 ft 478 kts 230°
2026-04-23 02:29 40.42181 -72.88966 32060 ft 479 kts 230°
2026-04-23 02:29 40.37141 -72.94711 32064 ft 480 kts 230°
2026-04-23 02:30 40.32092 -73.00450 32050 ft 480 kts 230°
2026-04-23 02:30 40.27042 -73.06178 32049 ft 480 kts 229°
2026-04-23 02:31 40.22019 -73.11867 32068 ft 480 kts 229°
2026-04-23 02:31 40.16957 -73.17584 32063 ft 481 kts 229°
2026-04-23 02:32 40.11886 -73.23296 32059 ft 481 kts 229°
2026-04-23 02:32 40.06816 -73.28998 32061 ft 481 kts 229°
2026-04-23 02:33 40.01736 -73.34695 32056 ft 481 kts 229°
2026-04-23 02:33 39.96657 -73.40377 32063 ft 481 kts 229°
2026-04-23 02:34 39.91567 -73.46057 32046 ft 481 kts 228°
2026-04-23 02:34 39.86509 -73.51685 32062 ft 481 kts 228°
2026-04-23 02:35 39.81424 -73.57334 32062 ft 481 kts 228°
2026-04-23 02:35 39.76317 -73.63004 32064 ft 482 kts 228°
2026-04-23 02:36 39.71220 -73.68652 32035 ft 481 kts 228°
2026-04-23 02:36 39.66117 -73.74296 32057 ft 481 kts 228°
2026-04-23 02:37 39.61017 -73.79926 32058 ft 482 kts 227°
2026-04-23 02:37 39.55909 -73.85554 32058 ft 482 kts 227°
2026-04-23 02:38 39.50793 -73.91178 32057 ft 482 kts 227°
2026-04-23 02:38 39.45713 -73.96755 32057 ft 482 kts 227°
2026-04-23 02:39 39.40591 -74.02364 32040 ft 482 kts 227°
2026-04-23 02:39 39.35473 -74.07965 32033 ft 482 kts 227°
2026-04-23 02:40 39.30356 -74.13559 32050 ft 482 kts 227°
2026-04-23 02:40 39.25274 -74.19098 31664 ft 468 kts 227°
2026-04-23 02:40 39.22811 -74.21774 31402 ft 458 kts 227°
2026-04-23 02:41 39.20396 -74.24398 31144 ft 449 kts 228°
2026-04-23 02:41 39.18026 -74.26974 30890 ft 441 kts 228°
2026-04-23 02:41 39.15731 -74.29469 30615 ft 433 kts 228°
2026-04-23 02:41 39.13438 -74.31964 30374 ft 432 kts 228°
2026-04-23 02:42 39.11142 -74.34464 30139 ft 431 kts 228°
2026-04-23 02:42 39.08853 -74.36952 29842 ft 431 kts 228°
2026-04-23 02:42 39.06560 -74.39439 29583 ft 430 kts 228°
2026-04-23 02:42 39.04272 -74.41915 29304 ft 430 kts 227°
2026-04-23 02:43 39.01986 -74.44388 29027 ft 429 kts 227°
2026-04-23 02:43 38.99706 -74.46851 28756 ft 427 kts 227°
2026-04-23 02:43 38.97425 -74.49317 28414 ft 431 kts 228°
2026-04-23 02:43 38.95363 -74.52089 28145 ft 426 kts 241°
2026-04-23 02:44 38.93836 -74.55291 27900 ft 416 kts 252°
2026-04-23 02:44 38.92844 -74.58704 27624 ft 402 kts 263°
2026-04-23 02:44 38.92191 -74.62176 27374 ft 397 kts 264°
2026-04-23 02:44 38.91560 -74.65616 27108 ft 395 kts 263°
2026-04-23 02:45 38.90912 -74.69042 26848 ft 394 kts 263°
2026-04-23 02:45 38.90248 -74.72444 26592 ft 392 kts 262°
2026-04-23 02:45 38.89576 -74.75833 26342 ft 391 kts 262°
2026-04-23 02:45 38.88922 -74.79215 26087 ft 389 kts 263°
2026-04-23 02:46 38.88288 -74.82590 25856 ft 388 kts 263°
2026-04-23 02:46 38.87661 -74.85948 25601 ft 387 kts 262°
2026-04-23 02:46 38.87034 -74.89301 25358 ft 386 kts 262°
2026-04-23 02:46 38.86407 -74.92647 25119 ft 385 kts 262°
2026-04-23 02:47 38.85777 -74.95987 24878 ft 384 kts 262°
2026-04-23 02:47 38.85148 -74.99316 24638 ft 383 kts 262°
2026-04-23 02:47 38.84519 -75.02633 24394 ft 382 kts 262°
2026-04-23 02:47 38.83891 -75.05939 24153 ft 381 kts 261°
2026-04-23 02:48 38.83264 -75.09235 23907 ft 380 kts 261°
2026-04-23 02:48 38.82639 -75.12520 23677 ft 379 kts 261°
2026-04-23 02:48 38.82013 -75.15804 23418 ft 379 kts 261°
2026-04-23 02:48 38.81387 -75.19069 23035 ft 375 kts 261°
2026-04-23 02:49 38.80862 -75.22275 22613 ft 367 kts 267°
2026-04-23 02:49 38.80622 -75.25509 22158 ft 362 kts 270°
2026-04-23 02:49 38.80449 -75.28720 21726 ft 358 kts 270°
2026-04-23 02:49 38.80284 -75.31895 21302 ft 355 kts 270°
2026-04-23 02:50 38.80110 -75.35035 20878 ft 352 kts 270°
2026-04-23 02:50 38.79926 -75.38156 20462 ft 349 kts 270°
2026-04-23 02:50 38.79736 -75.41242 20050 ft 346 kts 270°
2026-04-23 02:50 38.79543 -75.44314 19634 ft 344 kts 270°
2026-04-23 02:51 38.79351 -75.47321 19243 ft 341 kts 270°
2026-04-23 02:51 38.79154 -75.50377 18838 ft 339 kts 269°
2026-04-23 02:51 38.78963 -75.53348 18448 ft 337 kts 269°
2026-04-23 02:51 38.78771 -75.56336 18013 ft 335 kts 269°
2026-04-23 02:52 38.78580 -75.59303 17548 ft 334 kts 269°
2026-04-23 02:52 38.78389 -75.62268 17073 ft 333 kts 269°
2026-04-23 02:52 38.78198 -75.65201 16732 ft 328 kts 269°
2026-04-23 02:52 38.78008 -75.68109 16338 ft 326 kts 269°
2026-04-23 02:53 38.77820 -75.70998 15945 ft 324 kts 269°
2026-04-23 02:53 38.77632 -75.73863 15555 ft 322 kts 269°
2026-04-23 02:53 38.77445 -75.76710 15168 ft 320 kts 269°
2026-04-23 02:53 38.77258 -75.79544 14769 ft 318 kts 269°
2026-04-23 02:54 38.77071 -75.82366 14394 ft 317 kts 269°
2026-04-23 02:54 38.76885 -75.85174 14016 ft 316 kts 269°
2026-04-23 02:54 38.76699 -75.87969 13613 ft 315 kts 269°
2026-04-23 02:54 38.76512 -75.90756 13200 ft 313 kts 269°
2026-04-23 02:55 38.76325 -75.93532 12795 ft 312 kts 269°
2026-04-23 02:55 38.76139 -75.96291 12408 ft 310 kts 269°
2026-04-23 02:55 38.75955 -75.99028 12022 ft 308 kts 269°
2026-04-23 02:55 38.75769 -76.01756 11642 ft 306 kts 269°
2026-04-23 02:56 38.75586 -76.04433 11270 ft 305 kts 269°
2026-04-23 02:56 38.75443 -76.07126 10999 ft 298 kts 274°
2026-04-23 02:56 38.75591 -76.09724 10946 ft 290 kts 280°
2026-04-23 02:56 38.75859 -76.12336 10898 ft 302 kts 281°
2026-04-23 02:57 38.76153 -76.15027 10823 ft 307 kts 281°
2026-04-23 02:57 38.76439 -76.17727 10754 ft 305 kts 281°
2026-04-23 02:57 38.76712 -76.20419 10693 ft 304 kts 281°
2026-04-23 02:57 38.76975 -76.23095 10632 ft 303 kts 281°
2026-04-23 02:58 38.77232 -76.25774 10577 ft 302 kts 280°
2026-04-23 02:58 38.77484 -76.28438 10516 ft 301 kts 280°
2026-04-23 02:58 38.77734 -76.31108 10466 ft 301 kts 280°
2026-04-23 02:58 38.77982 -76.33772 10410 ft 301 kts 280°
2026-04-23 02:59 38.78229 -76.36440 10351 ft 302 kts 280°
2026-04-23 02:59 38.78475 -76.39110 10297 ft 302 kts 280°
2026-04-23 02:59 38.78721 -76.41783 10240 ft 302 kts 280°
2026-04-23 02:59 38.78966 -76.44461 10184 ft 302 kts 280°
2026-04-23 03:00 38.79207 -76.47095 10116 ft 292 kts 280°
2026-04-23 03:00 38.79435 -76.49624 10058 ft 280 kts 280°
2026-04-23 03:00 38.79655 -76.52058 10010 ft 268 kts 280°
2026-04-23 03:00 38.79840 -76.54388 9860 ft 261 kts 278°
2026-04-23 03:01 38.79929 -76.56704 9643 ft 259 kts 276°
2026-04-23 03:01 38.79996 -76.58986 9441 ft 259 kts 276°
2026-04-23 03:01 38.80063 -76.61300 9228 ft 260 kts 276°
2026-04-23 03:01 38.80133 -76.63617 9019 ft 260 kts 276°
2026-04-23 03:02 38.80206 -76.65934 8801 ft 260 kts 276°
2026-04-23 03:02 38.80281 -76.68244 8590 ft 260 kts 276°
2026-04-23 03:02 38.80356 -76.70559 8379 ft 259 kts 276°
2026-04-23 03:02 38.80431 -76.72864 8164 ft 259 kts 276°
2026-04-23 03:03 38.80506 -76.75167 7956 ft 258 kts 275°
2026-04-23 03:03 38.80646 -76.77443 7732 ft 255 kts 286°
2026-04-23 03:03 38.81388 -76.79467 7540 ft 250 kts 305°
2026-04-23 03:03 38.82443 -76.81230 7336 ft 248 kts 309°
2026-04-23 03:04 38.83539 -76.82937 7140 ft 247 kts 309°
2026-04-23 03:04 38.84625 -76.84643 6934 ft 246 kts 309°
2026-04-23 03:04 38.85338 -76.85775 6799 ft 246 kts 309°
2026-04-23 03:04 38.86405 -76.87481 6581 ft 246 kts 309°
2026-04-23 03:05 38.87473 -76.89194 6386 ft 246 kts 309°
2026-04-23 03:05 38.88601 -76.90838 6177 ft 246 kts 314°
2026-04-23 03:05 38.89814 -76.92387 5967 ft 246 kts 315°
2026-04-23 03:05 38.91439 -76.94424 5698 ft 246 kts 315°
2026-04-23 03:06 38.92267 -76.95467 5566 ft 246 kts 315°
2026-04-23 03:06 38.93488 -76.97009 5355 ft 246 kts 315°
2026-04-23 03:06 38.94704 -76.98554 5161 ft 247 kts 314°
2026-04-23 03:06 38.95926 -77.00111 4954 ft 247 kts 314°
2026-04-23 03:07 38.97143 -77.01665 4752 ft 247 kts 314°
2026-04-23 03:07 38.98358 -77.03219 4543 ft 246 kts 314°
2026-04-23 03:07 38.99570 -77.04772 4326 ft 246 kts 314°
2026-04-23 03:07 39.00780 -77.06323 4135 ft 245 kts 314°
2026-04-23 03:08 39.01965 -77.07843 3924 ft 241 kts 314°
2026-04-23 03:08 39.03155 -77.09370 3732 ft 237 kts 314°
2026-04-23 03:08 39.04299 -77.10834 3563 ft 232 kts 314°
2026-04-23 03:08 39.05419 -77.12263 3543 ft 221 kts 314°
2026-04-23 03:09 39.06426 -77.13715 3360 ft 220 kts 297°
2026-04-23 03:09 39.06663 -77.15647 3131 ft 224 kts 264°
2026-04-23 03:09 39.06110 -77.17526 2875 ft 229 kts 239°
2026-04-23 03:09 39.04926 -77.18885 2757 ft 232 kts 212°
2026-04-23 03:10 39.03327 -77.19341 2725 ft 242 kts 180°
2026-04-23 03:10 39.01732 -77.18749 2739 ft 235 kts 157°
2026-04-23 03:10 39.00319 -77.17831 2700 ft 220 kts 156°
2026-04-23 03:10 38.99024 -77.16978 2678 ft 203 kts 156°
2026-04-23 03:11 38.97791 -77.16169 2707 ft 192 kts 157°
2026-04-23 03:11 38.96604 -77.15386 2702 ft 194 kts 153°
2026-04-23 03:11 38.95498 -77.14333 2485 ft 205 kts 141°
2026-04-23 03:11 38.94433 -77.13131 2239 ft 202 kts 140°
2026-04-23 03:12 38.93401 -77.11937 1967 ft 196 kts 137°
2026-04-23 03:12 38.92510 -77.10749 1769 ft 182 kts 119°
2026-04-23 03:12 38.91752 -77.09473 1661 ft 180 kts 141°
2026-04-23 03:12 38.90801 -77.08449 1409 ft 175 kts 140°
2026-04-23 03:13 38.90049 -77.07288 1281 ft 161 kts 127°
2026-04-23 03:13 38.89415 -77.06180 1019 ft 150 kts 134°
2026-04-23 03:13 38.88732 -77.05232 829 ft 141 kts 138°
2026-04-23 03:13 38.88028 -77.04316 532 ft 146 kts 141°
2026-04-23 03:14 38.87194 -77.03936 330 ft 124 kts 182°
2026-04-23 03:14 38.86349 -77.03888 115 ft 120 kts 177°
2026-04-23 03:14 38.85548 -77.03811 26 ft 103 kts 176°
2026-04-23 03:14 38.85039 -77.03763 24 ft 52 kts 175°
2026-04-23 03:15 38.84892 -77.03795 25 ft 10 kts 236°
2026-04-23 03:15 38.84875 -77.03858 24 ft 6 kts 249°
2026-04-23 03:15 38.84843 -77.03883 23 ft 6 kts 186°
2026-04-23 03:15 38.84786 -77.03882 24 ft 10 kts 185°
2026-04-23 03:16 38.84705 -77.03923 26 ft 15 kts 205°